• In Belarus
  • List of Countries
  • For 7 days
  • Water Temperature
  • Satellite Maps
  • Weather Map
  • Weather Widgets
  • user-avatar
    Login

    Hourly Weather Sherpur

    Today, 18 October, Thursday

    Time Temperature Precipitation Wind Pressure Humidity
    00:00 +9°C° 0 mm 1 mps 608 mmHg 32%
    01:00 +9°C° 0 mm 1 mps 608 mmHg 33%
    02:00 +8°C° 0 mm 1 mps 607 mmHg 34%
    03:00 +8°C° 0 mm 1 mps 607 mmHg 34%
    04:00 +7°C° 0 mm 1 mps 607 mmHg 35%
    05:00 +7°C° 0 mm 1 mps 607 mmHg 36%
    06:00 +8°C° 0 mm 1 mps 608 mmHg 33%
    07:00 +9°C° 0 mm 1 mps 608 mmHg 30%
    08:00 +10°C° 0 mm 0 mps 609 mmHg 27%
    09:00 +12°C° 0 mm 1 mps 609 mmHg 25%
    10:00 +13°C° 0 mm 1 mps 610 mmHg 23%
    11:00 +14°C° 0 mm 2 mps 610 mmHg 21%
    12:00 +15°C° 0 mm 2 mps 610 mmHg 20%
    13:00 +15°C° 0 mm 2 mps 610 mmHg 18%
    14:00 +16°C° 0 mm 2 mps 610 mmHg 17%
    15:00 +16°C° 0 mm 2 mps 610 mmHg 17%
    16:00 +15°C° 0 mm 2 mps 610 mmHg 17%
    17:00 +15°C° 0 mm 2 mps 610 mmHg 18%
    18:00 +14°C° 0 mm 2 mps 609 mmHg 19%
    19:00 +12°C° 0 mm 2 mps 609 mmHg 21%
    20:00 +10°C° 0 mm 2 mps 609 mmHg 23%
    21:00 +10°C° 0 mm 1 mps 609 mmHg 24%
    22:00 +10°C° 0 mm 1 mps 609 mmHg 25%
    23:00 +9°C° 0 mm 1 mps 609 mmHg 27%

    Tomorrow, 19 October, Friday

    Time Temperature Precipitation Wind Pressure Humidity
    00:00 +9°C° 0 mm 1 mps 609 mmHg 28%
    01:00 +8°C° 0 mm 1 mps 608 mmHg 29%
    02:00 +8°C° 0 mm 1 mps 608 mmHg 30%
    03:00 +7°C° 0 mm 1 mps 608 mmHg 31%
    04:00 +7°C° 0 mm 1 mps 608 mmHg 33%
    05:00 +6°C° 0 mm 1 mps 607 mmHg 34%
    06:00 +8°C° 0 mm 1 mps 608 mmHg 31%
    07:00 +9°C° 0 mm 1 mps 609 mmHg 29%
    08:00 +10°C° 0 mm 1 mps 610 mmHg 26%
    09:00 +11°C° 0 mm 1 mps 611 mmHg 24%
    10:00 +12°C° 0 mm 1 mps 611 mmHg 23%
    11:00 +14°C° 0 mm 1 mps 612 mmHg 21%
    12:00 +14°C° 0 mm 1 mps 611 mmHg 20%
    13:00 +15°C° 0 mm 1 mps 611 mmHg 19%
    14:00 +16°C° 0 mm 2 mps 611 mmHg 19%
    15:00 +15°C° 0 mm 2 mps 611 mmHg 19%
    16:00 +15°C° 0 mm 2 mps 611 mmHg 19%
    17:00 +15°C° 0 mm 2 mps 611 mmHg 19%
    18:00 +14°C° 0 mm 1 mps 611 mmHg 22%
    19:00 +12°C° 0 mm 1 mps 611 mmHg 24%
    20:00 +11°C° 0 mm 1 mps 610 mmHg 27%
    21:00 +10°C° 0 mm 1 mps 610 mmHg 28%
    22:00 +10°C° 0 mm 1 mps 610 mmHg 30%
    23:00 +8°C° 0 mm 0 mps 610 mmHg 32%

    Day after tomorrow, 20 October, Saturday

    Time Temperature Precipitation Wind Pressure Humidity
    00:00 +7°C° 0 mm 0 mps 610 mmHg 33%
    01:00 +7°C° 0 mm 0 mps 609 mmHg 34%
    02:00 +6°C° 0 mm 0 mps 609 mmHg 35%
    03:00 +6°C° 0 mm 0 mps 609 mmHg 36%
    04:00 +6°C° 0 mm 0 mps 609 mmHg 37%
    05:00 +5°C° 0 mm 0 mps 608 mmHg 38%
    06:00 +7°C° 0 mm 0 mps 609 mmHg 35%
    07:00 +8°C° 0 mm 0 mps 610 mmHg 31%
    08:00 +9°C° 0 mm 0 mps 611 mmHg 28%
    09:00 +12°C° 0 mm 1 mps 612 mmHg 26%
    10:00 +13°C° 0 mm 1 mps 612 mmHg 24%
    11:00 +14°C° 0 mm 1 mps 613 mmHg 22%
    12:00 +15°C° 0 mm 1 mps 612 mmHg 21%
    13:00 +15°C° 0 mm 2 mps 612 mmHg 20%
    14:00 +16°C° 0 mm 2 mps 612 mmHg 19%
    15:00 +16°C° 0 mm 2 mps 612 mmHg 19%
    16:00 +16°C° 0 mm 2 mps 612 mmHg 19%
    17:00 +15°C° 0 mm 2 mps 612 mmHg 19%
    18:00 +14°C° 0 mm 1 mps 612 mmHg 22%
    19:00 +12°C° 0 mm 1 mps 611 mmHg 25%
    20:00 +11°C° 0 mm 1 mps 611 mmHg 27%
    21:00 +10°C° 0 mm 1 mps 611 mmHg 28%
    22:00 +10°C° 0 mm 1 mps 611 mmHg 30%
    23:00 +9°C° 0 mm 1 mps 611 mmHg 31%

    21 October, Sunday

    Time Temperature Precipitation Wind Pressure Humidity
    00:00 +9°C° 0 mm 1 mps 610 mmHg 32%
    01:00 +8°C° 0 mm 1 mps 610 mmHg 33%
    02:00 +8°C° 0 mm 1 mps 609 mmHg 34%
    03:00 +7°C° 0 mm 1 mps 609 mmHg 35%
    04:00 +6°C° 0 mm 0 mps 609 mmHg 36%
    05:00 +5°C° 0 mm 0 mps 609 mmHg 37%
    06:00 +7°C° 0 mm 0 mps 610 mmHg 34%
    07:00 +8°C° 0 mm 0 mps 611 mmHg 30%
    08:00 +10°C° 0 mm 0 mps 612 mmHg 27%
    09:00 +12°C° 0 mm 1 mps 612 mmHg 25%
    10:00 +13°C° 0 mm 1 mps 612 mmHg 23%
    11:00 +14°C° 0 mm 1 mps 613 mmHg 20%
    12:00 +15°C° 0 mm 1 mps 613 mmHg 19%
    13:00 +16°C° 0 mm 1 mps 613 mmHg 18%
    14:00 +16°C° 0 mm 2 mps 612 mmHg 17%
    15:00 +16°C° 0 mm 2 mps 612 mmHg 18%
    16:00 +16°C° 0 mm 2 mps 612 mmHg 18%
    17:00 +16°C° 0 mm 2 mps 612 mmHg 18%
    18:00 +14°C° 0 mm 1 mps 612 mmHg 21%
    19:00 +13°C° 0 mm 1 mps 611 mmHg 24%
    20:00 +11°C° 0 mm 1 mps 611 mmHg 27%
    21:00 +9°C° 0 mm 0 mps 611 mmHg 29%
    22:00 +9°C° 0 mm 0 mps 611 mmHg 31%
    23:00 +8°C° 0 mm 0 mps 610 mmHg 32%

    22 October, Monday

    Time Temperature Precipitation Wind Pressure Humidity
    00:00 +8°C° 0 mm 0 mps 610 mmHg 33%
    01:00 +7°C° 0 mm 0 mps 609 mmHg 34%
    02:00 +7°C° 0 mm 0 mps 609 mmHg 35%
    03:00 +6°C° 0 mm 0 mps 609 mmHg 36%
    04:00 +6°C° 0 mm 0 mps 609 mmHg 36%
    05:00 +6°C° 0 mm 0 mps 608 mmHg 36%
    06:00 +8°C° 0 mm 1 mps 609 mmHg 33%
    07:00 +10°C° 0 mm 1 mps 610 mmHg 29%
    08:00 +11°C° 0 mm 1 mps 611 mmHg 25%
    09:00 +12°C° 0 mm 1 mps 611 mmHg 23%
    10:00 +14°C° 0 mm 1 mps 612 mmHg 20%
    11:00 +15°C° 0 mm 1 mps 612 mmHg 18%
    12:00 +16°C° 0 mm 1 mps 612 mmHg 17%
    13:00 +18°C° 0 mm 1 mps 612 mmHg 15%
    14:00 +18°C° 0 mm 1 mps 611 mmHg 14%
    15:00 +18°C° 0 mm 1 mps 611 mmHg 14%
    16:00 +18°C° 0 mm 1 mps 611 mmHg 15%
    17:00 +16°C° 0 mm 1 mps 611 mmHg 15%
    18:00 +15°C° 0 mm 1 mps 611 mmHg 17%
    19:00 +13°C° 0 mm 1 mps 610 mmHg 20%
    20:00 +10°C° 0 mm 0 mps 610 mmHg 23%
    21:00 +10°C° 0 mm 0 mps 610 mmHg 23%
    22:00 +9°C° 0 mm 0 mps 610 mmHg 24%
    23:00 +9°C° 0 mm 0 mps 609 mmHg 24%

    23 October, Tuesday

    Time Temperature Precipitation Wind Pressure Humidity
    00:00 +8°C° 0 mm 0 mps 609 mmHg 24%
    01:00 +9°C° 0 mm 1 mps 608 mmHg 25%
    02:00 +8°C° 0 mm 1 mps 608 mmHg 25%
    03:00 +8°C° 0 mm 1 mps 608 mmHg 25%
    04:00 +8°C° 0 mm 1 mps 608 mmHg 25%
    05:00 +7°C° 0 mm 1 mps 608 mmHg 25%
    06:00 +9°C° 0 mm 1 mps 608 mmHg 23%
    07:00 +10°C° 0 mm 1 mps 609 mmHg 21%
    08:00 +11°C° 0 mm 1 mps 610 mmHg 19%
    09:00 +13°C° 0 mm 1 mps 611 mmHg 16%
    10:00 +15°C° 0 mm 1 mps 611 mmHg 14%
    11:00 +18°C° 0 mm 1 mps 612 mmHg 12%
    12:00 +18°C° 0 mm 1 mps 612 mmHg 11%
    13:00 +19°C° 0 mm 1 mps 611 mmHg 10%
    14:00 +20°C° 0 mm 1 mps 611 mmHg 9%
    15:00 +19°C° 0 mm 1 mps 611 mmHg 9%
    16:00 +19°C° 0 mm 1 mps 611 mmHg 10%
    17:00 +18°C° 0 mm 1 mps 611 mmHg 10%
    18:00 +16°C° 0 mm 1 mps 611 mmHg 12%
    19:00 +14°C° 0 mm 1 mps 611 mmHg 13%
    20:00 +13°C° 0 mm 1 mps 611 mmHg 15%
    21:00 +12°C° 0 mm 1 mps 610 mmHg 16%
    22:00 +12°C° 0 mm 1 mps 610 mmHg 16%
    23:00 +11°C° 0 mm 1 mps 610 mmHg 17%
    Show more